Regional Weather Roundup
Issued by NWS

Home | Current Version | Previous Version | Text Only | Print | Product List | Glossary On
Versions: 1 2 3 4 5 6 7 8 9 10 11 12 13 14 15 16 17 18 19 20 21 22 23 24 25 26 27 28 29 30 31 32 33 34 35 36 37 38 39 40 41 42 43 44 45 46 47 48 49 50
000
ASUS43 KFSD 280210
RWRSD

WEATHER ROUNDUP FOR SOUTH DAKOTA
NATIONAL WEATHER SERVICE SIOUX FALLS SD
800 PM CST MON FEB 27 2017

NOTE: "FAIR" INDICATES FEW OR NO CLOUDS BELOW 12,000 FEET WITH NO
SIGNIFICANT WEATHER AND/OR OBSTRUCTIONS TO VISIBILITY.


SDZ001>005-009-010-012>017-280300-
NORTHWEST AND NORTH CENTRAL SOUTH DAKOTA

CITY           SKY/WX    TMP DP  RH WIND       PRES   REMARKS
BUFFALO          N/A     23  18  81 NE14      29.63R WCI  11
FAITH            N/A     25  23  92 NE16      29.69R WCI  12
MOBRIDGE       CLOUDY    29  22  75 NE18      29.72R WCI  16
$$

SDZ012>016-024>037-041>051-057-063-072>074-280300-
SOUTHWEST AND SOUTH CENTRAL SOUTH DAKOTA

CITY           SKY/WX    TMP DP  RH WIND       PRES   REMARKS
RAPID CTY ARPT CLOUDY    32  18  56 NE9       29.65R WCI  24
PIERRE         CLOUDY    37  27  67 NE13      29.70R
CUSTER         CLOUDY    24  14  65 CALM      29.59R
ELLSWORTH AFB  CLOUDY    33  18  54 N6        29.65R WCI  27
PHILIP         LGT SNOW  33  32  96 E8        29.69R FOG     WCI  26
PINE RIDGE     CLOUDY    34  28  79 NW5       29.65S WCI  30
SPEARFISH      FAIR      27  19  74 SE8       29.64R WCI  18
WINNER         MOCLDY    36  29  75 SE9       29.66S
$$

SDZ004>011-016>023-039-040-280300-
NORTHEAST SOUTH DAKOTA

CITY           SKY/WX    TMP DP  RH WIND       PRES   REMARKS
ABERDEEN       FLURRIES  31  26  82 N12       29.78R WCI  22
WATERTOWN      PTCLDY    34  26  72 SE7       29.74R WCI  28
BROOKINGS      CLOUDY    38  28  67 S15       29.74S
SISSETON         N/A     32  31  96 N12       29.77R WCI  23
$$

SDZ017-020-022-023-036>040-048>070-280300-
SOUTHEAST SOUTH DAKOTA

CITY           SKY/WX    TMP DP  RH WIND       PRES   REMARKS
SIOUX FALLS    CLOUDY    38  31  76 E6        29.76S
HURON          CLEAR     35  27  72 SE8       29.72R WCI  29
CHAMBERLAIN    CLEAR     36  30  77 E6        29.68S
MITCHELL       CLEAR     35  29  78 SE9       29.72F WCI  28
YANKTON        CLEAR     36  28  75 E8        29.73S
$$

ABBREVIATIONS USED IN REMARKS
   TC - TEMPERATURE IN CELSIUS
  WCI - WIND CHILL INDEX
   HX - HEAT INDEX
  VSB - VISIBILITY




USA.gov is the U.S. government's official web portal to all federal, state and local government web resources and services.